Faribault, MN

12:10 PM CDT on June 26, 2017 (GMT -0500)
Faribault Municipal

Weather History for KFBL - July, 2014

Change the Weather History Date:

Friday, July 11, 2014

  Actual Average Record
Temperature  
Mean Temperature 75 °F -  
Max Temperature 84 °F 83 °F 99 °F (1980)
Min Temperature 66 °F 61 °F 50 °F (1975)
Cooling Degree Days 10    
Growing Degree Days 25 (Base 50)    
Moisture  
Dew Point 62 °F    
Average Humidity 63    
Maximum Humidity 83    
Minimum Humidity 50    
Precipitation  
Precipitation 0.22 in - - ()
Sea Level Pressure  
Sea Level Pressure 30.01 in    
Wind  
Wind Speed 9 mph (SSE)    
Max Wind Speed 17 mph    
Max Gust Speed 23 mph    
Visibility 10 miles    
Events Rain , Thunderstorm    
Averages and records for this station are not official NWS values.
T = Trace of Precipitation, MM = Missing Value Source: NWS Daily Summary

Daily Weather History Graph

Daily Weather History Graph

Search for Another Location

Airport or City:

Trip Planner

Search our weather history database for the weather conditions in past years. The results will help you decide how hot, cold, wet, or windy it might be!

Date:

Astronomy

Jul. 11, 2014 Rise Set
Actual Time 5:39 AM CDT 8:57 PM CDT
Civil Twilight 5:04 AM CDT 9:32 PM CDT
Nautical Twilight 4:17 AM CDT 10:19 PM CDT
Astronomical Twilight 3:20 AM CDT 11:16 PM CDT
Moon 8:04 PM CDT (7/11) 4:55 AM CDT (7/11)
Length of Visible Light 16h 28m
Length of Day
15h 17m
Waxing Gibbous, 99% of the Moon is Illuminated
Jul 11
Waxing Gibbous
Jul 12
Full
Jul 18
Last Quarter
Jul 26
New
Aug 3
First Quarter

Hourly Weather History & Observations

Time (CDT) Temp. Heat Index Dew Point Humidity Pressure Visibility Wind Dir Wind Speed Gust Speed Precip Events Conditions
12:14 AM 75.2 °F - 55.4 °F 50% 30.04 in 10.0 mi South 8.1 mph - N/A   Scattered Clouds
12:34 AM 73.4 °F - 57.2 °F 57% 30.04 in 10.0 mi South 9.2 mph - N/A   Scattered Clouds
12:54 AM 73.4 °F - 55.4 °F 53% 30.04 in 10.0 mi SSE 9.2 mph - N/A   Scattered Clouds
1:14 AM 71.6 °F - 59.0 °F 64% 30.04 in 10.0 mi SSE 8.1 mph - N/A Rain Light Rain
1:34 AM 71.6 °F - 59.0 °F 64% 30.03 in 10.0 mi SSE 8.1 mph - N/A   Overcast
1:54 AM 71.6 °F - 57.2 °F 60% 30.03 in 10.0 mi South 10.4 mph - N/A   Mostly Cloudy
2:14 AM 73.4 °F - 55.4 °F 53% 30.02 in 10.0 mi SSE 10.4 mph 19.6 mph N/A   Mostly Cloudy
2:54 AM 71.6 °F - 57.2 °F 60% 30.02 in 10.0 mi South 9.2 mph 16.1 mph N/A   Mostly Cloudy
3:14 AM 73.4 °F - 55.4 °F 53% 30.01 in 10.0 mi South 13.8 mph 20.7 mph N/A   Scattered Clouds
3:34 AM 71.6 °F - 55.4 °F 57% 30.01 in 10.0 mi SSE 11.5 mph 16.1 mph N/A   Mostly Cloudy
3:54 AM 71.6 °F - 57.2 °F 60% 30.02 in 10.0 mi South 9.2 mph - N/A   Mostly Cloudy
4:14 AM 71.6 °F - 57.2 °F 60% 30.03 in 10.0 mi South 10.4 mph 16.1 mph N/A   Scattered Clouds
4:34 AM 71.6 °F - 57.2 °F 60% 30.02 in 10.0 mi South 10.4 mph - N/A   Overcast
4:54 AM 71.6 °F - 57.2 °F 60% 30.01 in 10.0 mi South 10.4 mph - N/A   Overcast
5:14 AM 71.6 °F - 55.4 °F 57% 30.00 in 10.0 mi South 10.4 mph - N/A   Scattered Clouds
5:34 AM 73.4 °F - 55.4 °F 53% 29.99 in 10.0 mi South 13.8 mph - N/A   Clear
5:54 AM 71.6 °F - 55.4 °F 57% 29.99 in 10.0 mi South 13.8 mph 21.9 mph N/A   Clear
6:14 AM 71.6 °F - 57.2 °F 60% 29.99 in 10.0 mi South 11.5 mph - N/A Rain Light Rain
6:34 AM 71.6 °F - 57.2 °F 60% 30.00 in 10.0 mi SSE 10.4 mph - N/A   Scattered Clouds
6:54 AM 69.8 °F - 57.2 °F 64% 30.00 in 10.0 mi SSE 10.4 mph - N/A   Light Drizzle
7:14 AM 69.8 °F - 59.0 °F 68% 29.99 in 7.0 mi SSE 10.4 mph 16.1 mph N/A Rain Light Rain
7:34 AM 68.0 °F - 60.8 °F 78% 30.01 in 7.0 mi SSE 10.4 mph - 0.01 in Rain Light Rain
7:54 AM 68.0 °F - 60.8 °F 78% 30.02 in 10.0 mi SSE 8.1 mph 17.3 mph 0.01 in   Drizzle
8:14 AM 68.0 °F - 60.8 °F 78% 30.04 in 10.0 mi South 5.8 mph - N/A Rain Rain
8:34 AM 66.2 °F - 60.8 °F 83% 30.03 in 3.0 mi SSE 13.8 mph 18.4 mph 0.09 in Rain Heavy Rain
8:54 AM 66.2 °F - 60.8 °F 83% 30.02 in 10.0 mi SSE 12.7 mph 18.4 mph 0.15 in Rain Light Rain
9:14 AM 66.2 °F - 60.8 °F 83% 30.01 in 10.0 mi SSE 11.5 mph 18.4 mph 0.05 in Rain Rain
9:34 AM 66.2 °F - 60.8 °F 83% 30.02 in 10.0 mi SSE 12.7 mph 19.6 mph 0.06 in Rain Light Rain
9:54 AM 66.2 °F - 60.8 °F 83% 30.02 in 10.0 mi SSE 9.2 mph 19.6 mph 0.06 in Rain Light Rain
10:13 AM 66.2 °F - 60.8 °F 83% 30.03 in 10.0 mi SE 8.1 mph 16.1 mph N/A   Light Drizzle
10:34 AM 68.0 °F - 62.6 °F 83% 30.01 in 10.0 mi SE 12.7 mph 17.3 mph N/A   Mostly Cloudy
10:54 AM 69.8 °F - 62.6 °F 78% 30.00 in 10.0 mi SE 10.4 mph - N/A Thunderstorm Scattered Clouds
11:14 AM 69.8 °F - 62.6 °F 78% 30.02 in 10.0 mi SE 4.6 mph - N/A Thunderstorm Mostly Cloudy
11:34 AM 71.6 °F - 60.8 °F 69% 30.01 in 10.0 mi ESE 8.1 mph - N/A   Mostly Cloudy
11:54 AM 73.4 °F - 62.6 °F 69% 30.01 in 10.0 mi SE 6.9 mph - N/A   Mostly Cloudy
12:14 PM 75.2 °F - 62.6 °F 65% 30.01 in 10.0 mi SE 9.2 mph - N/A   Overcast
12:34 PM 77.0 °F - 62.6 °F 61% 30.01 in 10.0 mi SSE 10.4 mph - N/A   Mostly Cloudy
12:54 PM 78.8 °F - 60.8 °F 54% 30.00 in 10.0 mi SSE 15.0 mph 20.7 mph N/A   Scattered Clouds
1:14 PM 78.8 °F - 62.6 °F 57% 30.00 in 10.0 mi South 15.0 mph 20.7 mph N/A   Scattered Clouds
1:34 PM 78.8 °F - 62.6 °F 57% 29.99 in 10.0 mi SSE 15.0 mph 23.0 mph N/A   Scattered Clouds
1:46 PM 78.8 °F - 62.6 °F 57% 29.99 in 10.0 mi SSE 15.0 mph 19.6 mph N/A   Scattered Clouds
2:01 PM 80.6 °F 81.8 °F 62.6 °F 54% 29.98 in 10.0 mi SSE 17.3 mph 21.9 mph N/A   Clear
2:41 PM 82.4 °F 84.6 °F 66.2 °F 58% 29.98 in 10.0 mi South 11.5 mph 21.9 mph N/A   Clear
2:48 PM 82.4 °F 84.6 °F 66.2 °F 58% 29.98 in 10.0 mi South 9.2 mph 16.1 mph N/A   Scattered Clouds
2:54 PM 84.2 °F 85.6 °F 64.4 °F 51% 29.98 in 10.0 mi South 13.8 mph 20.7 mph N/A   Scattered Clouds
3:14 PM 84.2 °F 85.6 °F 64.4 °F 51% 29.97 in 10.0 mi South 13.8 mph 19.6 mph N/A   Scattered Clouds
3:34 PM 84.2 °F 85.6 °F 64.4 °F 51% 29.97 in 10.0 mi South 8.1 mph 16.1 mph N/A   Scattered Clouds
3:54 PM 82.4 °F 83.9 °F 64.4 °F 54% 29.98 in 10.0 mi South 11.5 mph 17.3 mph N/A   Mostly Cloudy
4:14 PM 82.4 °F 83.9 °F 64.4 °F 54% 29.98 in 10.0 mi South 10.4 mph 16.1 mph N/A   Overcast
4:34 PM 82.4 °F 84.6 °F 66.2 °F 58% 29.98 in 10.0 mi South 6.9 mph - N/A   Overcast
4:54 PM 82.4 °F 84.6 °F 66.2 °F 58% 29.98 in 10.0 mi South 8.1 mph - N/A   Overcast
5:14 PM 82.4 °F 84.6 °F 66.2 °F 58% 29.98 in 10.0 mi South 8.1 mph - N/A   Overcast
5:34 PM 80.6 °F 82.3 °F 64.4 °F 58% 29.98 in 10.0 mi South 6.9 mph - N/A   Overcast
5:54 PM 80.6 °F 82.7 °F 66.2 °F 61% 29.98 in 10.0 mi South 5.8 mph - N/A   Overcast
6:14 PM 82.4 °F 84.6 °F 66.2 °F 58% 29.98 in 10.0 mi South 5.8 mph - N/A   Overcast
6:34 PM 80.6 °F 82.3 °F 64.4 °F 58% 29.98 in 10.0 mi South 5.8 mph - N/A   Overcast
6:54 PM 82.4 °F 83.9 °F 64.4 °F 54% 29.98 in 10.0 mi SSE 6.9 mph - N/A   Mostly Cloudy
7:14 PM 80.6 °F 82.3 °F 64.4 °F 58% 29.99 in 10.0 mi SSE 5.8 mph - N/A   Mostly Cloudy
7:34 PM 80.6 °F 82.3 °F 64.4 °F 58% 29.99 in 10.0 mi SSE 4.6 mph - N/A   Overcast
7:54 PM 80.6 °F 82.7 °F 66.2 °F 61% 29.99 in 10.0 mi SSE 5.8 mph - N/A   Overcast
8:14 PM 80.6 °F 82.3 °F 64.4 °F 58% 30.00 in 10.0 mi SSE 6.9 mph - N/A   Overcast
8:33 PM 80.6 °F 82.3 °F 64.4 °F 58% 30.00 in 10.0 mi South 6.9 mph - N/A   Overcast
8:54 PM 78.8 °F - 66.2 °F 65% 30.00 in 10.0 mi South 6.9 mph - N/A   Mostly Cloudy
9:14 PM 78.8 °F - 66.2 °F 65% 30.01 in 10.0 mi SSE 4.6 mph - N/A   Mostly Cloudy
9:33 PM 77.0 °F - 66.2 °F 69% 30.01 in 10.0 mi South 3.5 mph - N/A   Scattered Clouds
9:54 PM 77.0 °F - 64.4 °F 65% 30.02 in 10.0 mi SSE 6.9 mph - N/A   Scattered Clouds
10:14 PM 75.2 °F - 64.4 °F 69% 30.02 in 10.0 mi SSE 6.9 mph - N/A   Clear
10:34 PM 75.2 °F - 64.4 °F 69% 30.02 in 10.0 mi South 5.8 mph - N/A   Clear
10:54 PM 75.2 °F - 64.4 °F 69% 30.02 in 10.0 mi South 5.8 mph - N/A   Clear
11:14 PM 73.4 °F - 64.4 °F 73% 30.03 in 10.0 mi South 4.6 mph - N/A   Clear
11:34 PM 73.4 °F - 64.4 °F 73% 30.03 in 10.0 mi South 4.6 mph - N/A   Clear
11:54 PM 73.4 °F - 64.4 °F 73% 30.04 in 10.0 mi South 3.5 mph - N/A   Clear